Regional Weather Roundup
Issued by NWS

Home | Current Version | Previous Version | Text Only | Print | Product List | Glossary On
Versions: 1 2 3 4 5 6 7 8 9 10 11 12 13 14 15 16 17 18 19 20 21 22 23 24 25 26 27 28 29 30 31 32 33 34 35 36 37 38 39 40 41 42 43 44 45 46 47 48 49 50
000
ASUS43 KLMK 201602
RWRKY
KENTUCKY REGIONAL WEATHER ROUNDUP
NATIONAL WEATHER SERVICE LOUISVILLE KY
1100 AM EST MON NOV 20 2017

NOTE "FAIR" INDICATES FEW OR NO CLOUDS BELOW 12,000 FEET
WITH NO SIGNIFICANT WEATHER AND/OR OBSTRUCTIONS TO VISIBILITY.

KYZ001>023-026-027-061>063-070>075-201700-
WESTERN AND SOUTH CENTRAL KENTUCKY

CITY           SKY/WX    TMP DP  RH WIND       PRES   REMARKS
PADUCAH        CLOUDY    43  25  49 VRB6      30.24R
HENDERSON      SUNNY     42  27  55 S15       30.23F
OWENSBORO      SUNNY     41  26  55 S12       30.25F
HOPKINSVILLE   CLOUDY    42  23  46 S8        30.25F
BOWLING GREEN  SUNNY     42  25  50 S7        30.28F
GLASGOW        NOT AVBL
$$

KYZ024-025-028>034-038-045-046-053-201700-
NORTH CENTRAL KENTUCKY

CITY           SKY/WX    TMP DP  RH WIND       PRES   REMARKS
LOUISVILLE/SDF PTSUNNY   41  24  51 S7        30.25S
LOUISVILLE/LOU SUNNY     39  25  57 S13       30.26S WCI  31
FORT KNOX      SUNNY     40  23  51 S12       30.24S WCI  33
$$

KYZ035>037-039>044-047>052-055>060-089>105-201700-
NORTHEAST KENTUCKY

CITY           SKY/WX    TMP DP  RH WIND       PRES   REMARKS
LEXINGTON      SUNNY     39  24  55 S9        30.26S WCI  33
COVINGTON      PTSUNNY   37  25  61 S13       30.22S WCI  29
FRANKFORT      SUNNY     39  24  55 S8        30.25S WCI  33
$$

KYZ054-064>069-076>088-106>120-201700-
SOUTHEAST KENTUCKY

CITY           SKY/WX    TMP DP  RH WIND       PRES   REMARKS
JACKSON        SUNNY     37  27  67 VRB3      30.26S
LONDON         SUNNY     37  25  61 VRB5      30.28R WCI  33
SOMERSET       NOT AVBL
MIDDLESBORO    SUNNY     40  27  59 SE6       30.29F
MONTICELLO     SUNNY     40  27  59 VRB3      30.30F
$$





USA.gov is the U.S. government's official web portal to all federal, state and local government web resources and services.